Home   Weather   Schmallenberg   Past weeks

Flag for Germany Past Weather in Schmallenberg, North Rhine-Westphalia, Germany — Yesterday and Last 2 Weeks

Now
18 °F

Cold.


Feels Like: 9 °F
Forecast: 15 / 29 °F
Wind: 6 mph from Northwest

Location: Fritzlar Airport

Current Time: Jan 20, 2017 at 2:51:51 am

Latest Report: Jan 20, 2017 at 1:20 am


Visibility: N/A

Pressure: 30.60 "Hg

Humidity: 86%

Dew Point: 14 °F

Location of SchmallenbergLocation

Past Weather in Schmallenberg — Graph

°F

Schmallenberg Temperature Yesterday

Maximum temperature yesterday: 32 °F (at 3:20 pm)
Minimum temperature yesterday: 14 °F (at 4:20 am)
Average temperature yesterday: 21 °F

High & Low Weather Summary for the Past Weeks

 TemperatureHumidityPressure
High41 °F (Jan 11, 8:20 pm)100% (Jan 8, 12:20 pm)30.74 "Hg (Jan 8, 12:20 pm)
Low14 °F (Jan 6, 7:20 am)55% (Jan 5, 1:20 pm)28.97 "Hg (Jan 13, 3:20 am)
Average29 °F83%30.17 "Hg
* Reported Jan 5 1:20 am — Jan 20 1:20 am, Schmallenberg, Weather by CustomWeather, © 2017

Note: Actual official high and low records may vary slightly from our data, if they occured in-between our weather recording intervals... More about our weather records

Advertising

Schmallenberg Weather History for the Previous 24 Hours

Scroll right to see more
 ConditionsComfort  
Time TempWeatherWind HumidityBarometerVisibility
1:20 am
Fri, Jan 20
18 °FCold.6 mph86%30.60 "HgN/A
12:20 am18 °FCold.7 mph86%30.63 "HgN/A
11:20 pm
Thu, Jan 19
19 °FCold.7 mph86%30.63 "HgN/A
10:20 pm19 °FCold.7 mph86%30.63 "HgN/A
9:20 pm21 °FCold.7 mph80%30.63 "HgN/A
8:20 pm23 °FCold.5 mph80%30.63 "HgN/A
7:20 pm23 °FCold.6 mph80%30.63 "HgN/A
6:20 pm25 °FCold.5 mph74%30.60 "HgN/A
5:20 pm25 °FPassing clouds.1 mph74%30.60 "HgN/A
4:20 pm30 °FPassing clouds.1 mph64%30.60 "HgN/A
3:20 pm32 °FPassing clouds.No wind55%30.60 "HgN/A
2:20 pm30 °FPassing clouds.5 mph64%30.60 "HgN/A
1:20 pm28 °FPassing clouds.2 mph64%30.63 "HgN/A
12:20 pm25 °FPassing clouds.1 mph74%30.66 "HgN/A
11:20 am21 °FPassing clouds.5 mph80%30.66 "HgN/A
10:20 am18 °FPassing clouds.7 mph86%30.66 "HgN/A
9:20 am16 °FPassing clouds.6 mph86%30.66 "HgN/A
8:20 am16 °FScattered clouds.6 mph86%30.66 "HgN/A
7:20 am16 °FPassing clouds.5 mph86%30.66 "HgN/A
6:20 am16 °FPassing clouds.6 mph86%30.66 "HgN/A
5:20 am14 °FPassing clouds.6 mph92%30.66 "HgN/A
4:20 am14 °FCold.7 mph92%30.66 "HgN/A
3:20 am16 °FCold.3 mph86%30.66 "HgN/A
2:20 am16 °FCold.6 mph93%30.66 "HgN/A
Weather by CustomWeather, © 2017

See weather overviewHow to use our weather pages